Location: Observatoire
(46.1952°N, 5.3391°E)
Time: 22:56:20
(UTC+01:00)

Courier 1B Rocket - Pass Details

Date: 22 February 2026
Orbit: 920 x 1201 km, 28.2° (Epoch: 11 March)

Event Time Altitude Azimuth Distance (km) Brightness Sun altitude
Rises 20:23:56 0° 238° (WSW) 3,544 8.7 -23.0°
Reaches altitude 10° 20:27:52 10° 214° (SW) 2,605 7.5 -23.7°
Maximum altitude 20:30:57 14° 184° (S) 2,334 6.9 -24.2°
Enters shadow 20:32:07 13° 172° (S) 2,384 6.8 -24.4°
Drops below altitude 10° 20:34:04 10° 154° (SSE) 2,641 - -24.7°
Sets 20:38:06 0° 131° (SE) 3,628 - -25.4°
